,,,PA_Meas_PMT16A,,PR_Meas_QMR101_102,,RH_Meas_QMH101,,SR_Meas_QMS101,,TA_Meas_QMH101,,GenWind,,GenWind,
date,time,status,PA,status,PR,status,RH,status,SR,status,TA,status,DirAvg,status,SpdAvg,
2011-09-10, 00:00:04,VALID,1009.762,VALID,0.0,VALID,101.476,VALID,0.106,VALID,25.156,VALID,156.0,VALID,0.15,
2011-09-10, 00:01:04,VALID,1009.775,VALID,0.0,VALID,101.56,VALID,0.106,VALID,25.115,VALID,156.0,VALID,0.143,
2011-09-10, 00:02:04,VALID,1009.753,VALID,0.0,VALID,101.613,VALID,0.0,VALID,25.115,VALID,156.0,VALID,0.24,
2011-09-10, 00:03:04,VALID,1009.774,VALID,0.0,VALID,101.674,VALID,0.106,VALID,25.136,VALID,156.0,VALID,0.411,
2011-09-10, 00:04:04,VALID,1009.776,VALID,0.0,VALID,101.682,VALID,0.106,VALID,25.115,VALID,156.0,VALID,0.327,
2011-09-10, 00:05:04,VALID,1009.763,VALID,0.0,VALID,101.72,VALID,0.0,VALID,25.097,VALID,155.0,VALID,0.32,
2011-09-10, 00:06:04,VALID,1009.77,VALID,0.0,VALID,101.712,VALID,0.0,VALID,25.119,VALID,156.0,VALID,0.208,
2011-09-10, 00:07:04,VALID,1009.767,VALID,0.0,VALID,101.796,VALID,0.0,VALID,25.119,VALID,156.0,VALID,0.234,
2011-09-10, 00:08:04,VALID,1009.771,VALID,0.0,VALID,101.819,VALID,0.0,VALID,25.138,VALID,156.0,VALID,0.3,
2011-09-10, 00:09:04,VALID,1009.766,VALID,0.0,VALID,101.819,VALID,0.0,VALID,25.136,VALID,156.0,VALID,0.251,
2011-09-10, 00:10:04,VALID,1009.765,VALID,0.0,VALID,101.781,VALID,0.0,VALID,25.117,VALID,155.0,VALID,0.22,
2011-09-10, 00:11:04,VALID,1009.737,VALID,0.0,VALID,101.758,VALID,0.0,VALID,25.138,VALID,156.0,VALID,0.039,
2011-09-10, 00:12:04,VALID,1009.737,VALID,0.0,VALID,101.705,VALID,0.0,VALID,25.117,VALID,121.0,VALID,0.53,
2011-09-10, 00:13:04,VALID,1009.723,VALID,0.0,VALID,101.667,VALID,0.0,VALID,25.117,VALID,121.0,VALID,0.1,
2011-09-10, 00:14:04,VALID,1009.746,VALID,0.0,VALID,101.598,VALID,0.0,VALID,25.117,VALID,121.0,VALID,0.0,
2011-09-10, 00:15:04,VALID,1009.735,VALID,0.0,VALID,101.552,VALID,0.0,VALID,25.138,VALID,121.0,VALID,0.016,
2011-09-10, 00:16:04,VALID,1009.753,VALID,0.0,VALID,101.583,VALID,0.0,VALID,25.117,VALID,121.0,VALID,0.073,
2011-09-10, 00:17:04,VALID,1009.734,VALID,0.0,VALID,101.636,VALID,0.0,VALID,25.138,VALID,121.0,VALID,0.137,
2011-09-10, 00:18:04,VALID,1009.717,VALID,0.0,VALID,101.613,VALID,0.0,VALID,25.117,VALID,121.0,VALID,0.0,
2011-09-10, 00:19:04,VALID,1009.738,VALID,0.0,VALID,101.628,VALID,0.0,VALID,25.119,VALID,121.0,VALID,0.0,
2011-09-10, 00:20:04,VALID,1009.72,VALID,0.0,VALID,101.651,VALID,0.106,VALID,25.097,VALID,121.0,VALID,0.0,
2011-09-10, 00:21:04,VALID,1009.748,VALID,0.0,VALID,101.75,VALID,0.106,VALID,25.056,VALID,121.0,VALID,0.0,
2011-09-10, 00:22:04,VALID,1009.756,VALID,0.0,VALID,101.781,VALID,0.106,VALID,25.037,VALID,121.0,VALID,0.193,
2011-09-10, 00:23:04,VALID,1009.732,VALID,0.0,VALID,101.674,VALID,0.106,VALID,25.019,VALID,121.0,VALID,0.235,
2011-09-10, 00:24:04,VALID,1009.735,VALID,0.0,VALID,101.712,VALID,0.106,VALID,24.98,VALID,121.0,VALID,0.121,
2011-09-10, 00:25:04,VALID,1009.728,VALID,0.0,VALID,101.85,VALID,0.106,VALID,24.922,VALID,121.0,VALID,0.116,
2011-09-10, 00:26:04,VALID,1009.742,VALID,0.0,VALID,102.185,VALID,0.106,VALID,24.881,VALID,121.0,VALID,0.0,
2011-09-10, 00:27:04,VALID,1009.73,VALID,0.0,VALID,102.399,VALID,0.106,VALID,24.842,VALID,121.0,VALID,0.0,
2011-09-10, 00:28:04,VALID,1009.729,VALID,0.0,VALID,102.605,VALID,0.106,VALID,24.844,VALID,121.0,VALID,0.0,
2011-09-10, 00:29:04,VALID,1009.701,VALID,0.0,VALID,102.772,VALID,0.0,VALID,24.824,VALID,121.0,VALID,0.0,
2011-09-10, 00:30:04,VALID,1009.671,VALID,0.0,VALID,102.971,VALID,0.0,VALID,24.805,VALID,121.0,VALID,0.0,
2011-09-10, 00:31:04,VALID,1009.655,VALID,0.0,VALID,103.169,VALID,0.106,VALID,24.803,VALID,121.0,VALID,0.0,
2011-09-10, 00:32:04,VALID,1009.655,VALID,0.0,VALID,103.192,VALID,0.106,VALID,24.783,VALID,121.0,VALID,0.0,
2011-09-10, 00:33:04,VALID,1009.613,VALID,0.0,VALID,103.26,VALID,0.0,VALID,24.805,VALID,121.0,VALID,0.0,
2011-09-10, 00:34:04,VALID,1009.617,VALID,0.0,VALID,103.329,VALID,0.0,VALID,24.783,VALID,121.0,VALID,0.0,
2011-09-10, 00:35:04,VALID,1009.599,VALID,0.0,VALID,103.398,VALID,0.106,VALID,24.805,VALID,121.0,VALID,0.0,
2011-09-10, 00:36:04,VALID,1009.594,VALID,0.0,VALID,103.459,VALID,0.106,VALID,24.805,VALID,121.0,VALID,0.0,
2011-09-10, 00:37:04,VALID,1009.569,VALID,0.0,VALID,103.52,VALID,0.106,VALID,24.805,VALID,121.0,VALID,0.0,
2011-09-10, 00:38:04,VALID,1009.575,VALID,0.0,VALID,103.588,VALID,0.106,VALID,24.805,VALID,121.0,VALID,0.0,
2011-09-10, 00:39:04,VALID,1009.563,VALID,0.0,VALID,103.603,VALID,0.0,VALID,24.764,VALID,121.0,VALID,0.0,
2011-09-10, 00:40:04,VALID,1009.547,VALID,0.0,VALID,103.481,VALID,0.0,VALID,24.766,VALID,121.0,VALID,0.0,
2011-09-10, 00:41:04,VALID,1009.524,VALID,0.0,VALID,103.481,VALID,0.0,VALID,24.725,VALID,121.0,VALID,0.0,
2011-09-10, 00:42:04,VALID,1009.532,VALID,0.0,VALID,103.581,VALID,0.106,VALID,24.725,VALID,121.0,VALID,0.0,
2011-09-10, 00:43:04,VALID,1009.541,VALID,0.0,VALID,103.71,VALID,0.106,VALID,24.746,VALID,121.0,VALID,0.0,
2011-09-10, 00:44:04,VALID,1009.504,VALID,0.0,VALID,103.718,VALID,0.0,VALID,24.727,VALID,121.0,VALID,0.0,
2011-09-10, 00:45:04,VALID,1009.518,VALID,0.0,VALID,103.802,VALID,0.0,VALID,24.706,VALID,121.0,VALID,0.0,
2011-09-10, 00:46:04,VALID,1009.498,VALID,0.0,VALID,103.87,VALID,0.0,VALID,24.727,VALID,121.0,VALID,0.016,
2011-09-10, 00:47:04,VALID,1009.498,VALID,0.0,VALID,103.939,VALID,0.106,VALID,24.706,VALID,121.0,VALID,0.193,
2011-09-10, 00:48:04,VALID,1009.484,VALID,0.0,VALID,103.992,VALID,0.106,VALID,24.707,VALID,121.0,VALID,0.129,
2011-09-10, 00:49:04,VALID,1009.47,VALID,0.0,VALID,104.0,VALID,0.106,VALID,24.686,VALID,121.0,VALID,0.184,
2011-09-10, 00:50:04,VALID,1009.452,VALID,0.0,VALID,104.0,VALID,0.0,VALID,24.707,VALID,121.0,VALID,0.225,
2011-09-10, 00:51:04,VALID,1009.439,VALID,0.0,VALID,104.0,VALID,0.106,VALID,24.707,VALID,121.0,VALID,0.304,
2011-09-10, 00:52:04,VALID,1009.407,VALID,0.0,VALID,104.0,VALID,0.0,VALID,24.686,VALID,121.0,VALID,0.266,
2011-09-10, 00:53:04,VALID,1009.402,VALID,0.0,VALID,104.0,VALID,0.0,VALID,24.707,VALID,121.0,VALID,0.308,
2011-09-10, 00:54:04,VALID,1009.38,VALID,0.0,VALID,104.0,VALID,0.0,VALID,24.688,VALID,121.0,VALID,0.239,
2011-09-10, 00:55:04,VALID,1009.355,VALID,0.0,VALID,104.0,VALID,0.106,VALID,24.707,VALID,121.0,VALID,0.127,
2011-09-10, 00:56:04,VALID,1009.335,VALID,0.0,VALID,104.0,VALID,0.0,VALID,24.667,VALID,121.0,VALID,0.183,
2011-09-10, 00:57:04,VALID,1009.311,VALID,0.0,VALID,104.0,VALID,0.106,VALID,24.686,VALID,121.0,VALID,0.405,
2011-09-10, 00:58:04,VALID,1009.306,VALID,0.0,VALID,104.0,VALID,0.0,VALID,24.746,VALID,122.0,VALID,0.458,
2011-09-10, 00:59:04,VALID,1009.297,VALID,0.0,VALID,104.0,VALID,0.106,VALID,24.764,VALID,127.0,VALID,0.36,
2011-09-10, 01:00:04,VALID,1009.267,VALID,0.0,VALID,104.0,VALID,0.0,VALID,24.783,VALID,127.0,VALID,0.402,
2011-09-10, 01:01:04,VALID,1009.247,VALID,0.0,VALID,104.0,VALID,0.0,VALID,24.824,VALID,127.0,VALID,0.304,
2011-09-10, 01:02:04,VALID,1009.251,VALID,0.0,VALID,103.939,VALID,0.106,VALID,24.803,VALID,127.0,VALID,0.357,
2011-09-10, 01:03:04,VALID,1009.251,VALID,0.0,VALID,103.84,VALID,0.0,VALID,24.824,VALID,127.0,VALID,0.348,
2011-09-10, 01:04:04,VALID,1009.24,VALID,0.0,VALID,103.794,VALID,0.106,VALID,24.844,VALID,127.0,VALID,0.31,
2011-09-10, 01:05:04,VALID,1009.216,VALID,0.0,VALID,103.718,VALID,0.106,VALID,24.844,VALID,127.0,VALID,0.343,
2011-09-10, 01:06:04,VALID,1009.241,VALID,0.0,VALID,103.687,VALID,0.0,VALID,24.842,VALID,127.0,VALID,0.319,
2011-09-10, 01:07:04,VALID,1009.221,VALID,0.0,VALID,103.657,VALID,0.0,VALID,24.842,VALID,127.0,VALID,0.254,
2011-09-10, 01:08:04,VALID,1009.238,VALID,0.0,VALID,103.611,VALID,0.0,VALID,24.842,VALID,127.0,VALID,0.151,
2011-09-10, 01:09:04,VALID,1009.235,VALID,0.0,VALID,103.588,VALID,0.0,VALID,24.842,VALID,127.0,VALID,0.05,
2011-09-10, 01:10:04,VALID,1009.27,VALID,0.0,VALID,103.588,VALID,0.0,VALID,24.861,VALID,127.0,VALID,0.0,
2011-09-10, 01:11:04,VALID,1009.292,VALID,0.0,VALID,103.596,VALID,0.106,VALID,24.861,VALID,127.0,VALID,0.112,
2011-09-10, 01:12:04,VALID,1009.29,VALID,0.0,VALID,103.649,VALID,0.0,VALID,24.842,VALID,127.0,VALID,0.178,
2011-09-10, 01:13:04,VALID,1009.294,VALID,0.0,VALID,103.687,VALID,0.106,VALID,24.861,VALID,127.0,VALID,0.089,
2011-09-10, 01:14:04,VALID,1009.272,VALID,0.0,VALID,103.71,VALID,0.106,VALID,24.883,VALID,127.0,VALID,0.006,
2011-09-10, 01:15:04,VALID,1009.302,VALID,0.0,VALID,103.741,VALID,0.106,VALID,24.883,VALID,127.0,VALID,0.0,
2011-09-10, 01:16:04,VALID,1009.274,VALID,0.0,VALID,103.741,VALID,0.0,VALID,24.861,VALID,127.0,VALID,0.0,
2011-09-10, 01:17:04,VALID,1009.282,VALID,0.0,VALID,103.71,VALID,0.106,VALID,24.861,VALID,127.0,VALID,0.031,
2011-09-10, 01:18:04,VALID,1009.282,VALID,0.0,VALID,103.687,VALID,0.0,VALID,24.861,VALID,127.0,VALID,0.0,
2011-09-10, 01:19:04,VALID,1009.29,VALID,0.0,VALID,103.626,VALID,0.106,VALID,24.842,VALID,127.0,VALID,0.0,
2011-09-10, 01:20:04,VALID,1009.308,VALID,0.0,VALID,103.611,VALID,0.0,VALID,24.844,VALID,127.0,VALID,0.0,
2011-09-10, 01:21:04,VALID,1009.292,VALID,0.0,VALID,103.664,VALID,0.0,VALID,24.824,VALID,127.0,VALID,0.0,
2011-09-10, 01:22:04,VALID,1009.295,VALID,0.0,VALID,103.695,VALID,0.0,VALID,24.805,VALID,127.0,VALID,0.0,
2011-09-10, 01:23:04,VALID,1009.26,VALID,0.0,VALID,103.756,VALID,0.0,VALID,24.783,VALID,127.0,VALID,0.0,
2011-09-10, 01:24:04,VALID,1009.28,VALID,0.0,VALID,103.787,VALID,0.0,VALID,24.764,VALID,127.0,VALID,0.0,
2011-09-10, 01:25:04,VALID,1009.268,VALID,0.0,VALID,103.825,VALID,0.0,VALID,24.745,VALID,127.0,VALID,0.0,
2011-09-10, 01:26:04,VALID,1009.259,VALID,0.0,VALID,103.848,VALID,0.106,VALID,24.746,VALID,127.0,VALID,0.0,
2011-09-10, 01:27:04,VALID,1009.288,VALID,0.0,VALID,103.893,VALID,0.0,VALID,24.706,VALID,127.0,VALID,0.0,
2011-09-10, 01:28:04,VALID,1009.289,VALID,0.0,VALID,103.954,VALID,0.0,VALID,24.686,VALID,127.0,VALID,0.0,
2011-09-10, 01:29:04,VALID,1009.293,VALID,0.0,VALID,103.962,VALID,0.106,VALID,24.667,VALID,127.0,VALID,0.0,
2011-09-10, 01:30:04,VALID,1009.269,VALID,0.0,VALID,103.992,VALID,0.106,VALID,24.647,VALID,127.0,VALID,0.0,
2011-09-10, 01:31:04,VALID,1009.262,VALID,0.0,VALID,104.0,VALID,0.106,VALID,24.628,VALID,127.0,VALID,0.0,
2011-09-10, 01:32:04,VALID,1009.262,VALID,0.0,VALID,104.0,VALID,0.106,VALID,24.629,VALID,127.0,VALID,0.0,
2011-09-10, 01:33:04,VALID,1009.246,VALID,0.0,VALID,104.0,VALID,0.106,VALID,24.608,VALID,127.0,VALID,0.0,
2011-09-10, 01:34:04,VALID,1009.243,VALID,0.0,VALID,104.0,VALID,0.106,VALID,24.608,VALID,127.0,VALID,0.086,
2011-09-10, 01:35:04,VALID,1009.256,VALID,0.0,VALID,104.0,VALID,0.0,VALID,24.649,VALID,127.0,VALID,0.371,
2011-09-10, 01:36:04,VALID,1009.229,VALID,0.0,VALID,104.0,VALID,0.0,VALID,24.668,VALID,127.0,VALID,0.284,
2011-09-10, 01:37:04,VALID,1009.235,VALID,0.0,VALID,104.0,VALID,0.0,VALID,24.688,VALID,127.0,VALID,0.284,
2011-09-10, 01:38:04,VALID,1009.271,VALID,0.0,VALID,104.0,VALID,0.0,VALID,24.707,VALID,131.0,VALID,0.439,
2011-09-10, 01:39:04,VALID,1009.243,VALID,0.0,VALID,104.0,VALID,0.0,VALID,24.727,VALID,131.0,VALID,0.332,
2011-09-10, 01:40:04,VALID,1009.243,VALID,0.0,VALID,104.0,VALID,0.0,VALID,24.746,VALID,131.0,VALID,0.324,
2011-09-10, 01:41:04,VALID,1009.268,VALID,0.0,VALID,104.0,VALID,0.0,VALID,24.785,VALID,131.0,VALID,0.32,
2011-09-10, 01:42:04,VALID,1009.259,VALID,0.0,VALID,104.0,VALID,0.0,VALID,24.805,VALID,131.0,VALID,0.236,
2011-09-10, 01:43:04,VALID,1009.274,VALID,0.0,VALID,104.0,VALID,0.0,VALID,24.846,VALID,131.0,VALID,0.379,
2011-09-10, 01:44:04,VALID,1009.281,VALID,0.0,VALID,104.0,VALID,0.0,VALID,24.863,VALID,131.0,VALID,0.427,
2011-09-10, 01:45:04,VALID,1009.259,VALID,0.0,VALID,104.0,VALID,0.0,VALID,24.861,VALID,131.0,VALID,0.365,
2011-09-10, 01:46:04,VALID,1009.246,VALID,0.0,VALID,103.97,VALID,0.0,VALID,24.922,VALID,131.0,VALID,0.236,
2011-09-10, 01:47:04,VALID,1009.253,VALID,0.0,VALID,103.825,VALID,0.0,VALID,24.922,VALID,131.0,VALID,0.224,
2011-09-10, 01:48:04,VALID,1009.239,VALID,0.0,VALID,103.657,VALID,0.0,VALID,24.961,VALID,131.0,VALID,0.059,
2011-09-10, 01:49:04,VALID,1009.246,VALID,0.0,VALID,103.535,VALID,0.0,VALID,24.961,VALID,131.0,VALID,0.111,
2011-09-10, 01:50:04,VALID,1009.248,VALID,0.0,VALID,103.474,VALID,0.106,VALID,24.978,VALID,139.0,VALID,0.253,
2011-09-10, 01:51:04,VALID,1009.276,VALID,0.0,VALID,103.405,VALID,0.106,VALID,25.017,VALID,139.0,VALID,0.139,
2011-09-10, 01:52:04,VALID,1009.283,VALID,0.0,VALID,103.283,VALID,0.106,VALID,25.017,VALID,139.0,VALID,0.172,
2011-09-10, 01:53:04,VALID,1009.251,VALID,0.0,VALID,103.138,VALID,0.106,VALID,25.039,VALID,139.0,VALID,0.0,
2011-09-10, 01:54:04,VALID,1009.287,VALID,0.0,VALID,103.039,VALID,0.106,VALID,25.019,VALID,139.0,VALID,0.002,
2011-09-10, 01:55:04,VALID,1009.263,VALID,0.0,VALID,103.024,VALID,0.0,VALID,24.998,VALID,139.0,VALID,0.082,
2011-09-10, 01:56:04,VALID,1009.241,VALID,0.0,VALID,102.925,VALID,0.0,VALID,24.998,VALID,139.0,VALID,0.0,
2011-09-10, 01:57:04,VALID,1009.247,VALID,0.0,VALID,102.894,VALID,0.106,VALID,25.0,VALID,139.0,VALID,0.018,
2011-09-10, 01:58:04,VALID,1009.245,VALID,0.0,VALID,102.955,VALID,0.106,VALID,24.978,VALID,139.0,VALID,0.075,
2011-09-10, 01:59:04,VALID,1009.275,VALID,0.0,VALID,102.955,VALID,0.106,VALID,25.0,VALID,139.0,VALID,0.0,
2011-09-10, 02:00:04,VALID,1009.247,VALID,0.0,VALID,102.94,VALID,0.106,VALID,24.961,VALID,139.0,VALID,0.006,
2011-09-10, 02:01:04,VALID,1009.259,VALID,0.0,VALID,102.91,VALID,0.106,VALID,24.961,VALID,139.0,VALID,0.0,
2011-09-10, 02:02:04,VALID,1009.256,VALID,0.0,VALID,102.932,VALID,0.106,VALID,24.92,VALID,139.0,VALID,0.0,
2011-09-10, 02:03:04,VALID,1009.243,VALID,0.0,VALID,102.917,VALID,0.106,VALID,24.881,VALID,139.0,VALID,0.0,
2011-09-10, 02:04:04,VALID,1009.23,VALID,0.0,VALID,102.879,VALID,0.106,VALID,24.861,VALID,139.0,VALID,0.0,
2011-09-10, 02:05:04,VALID,1009.245,VALID,0.0,VALID,103.054,VALID,0.0,VALID,24.846,VALID,139.0,VALID,0.0,
2011-09-10, 02:06:04,VALID,1009.221,VALID,0.0,VALID,103.215,VALID,0.0,VALID,24.826,VALID,139.0,VALID,0.0,
2011-09-10, 02:07:04,VALID,1009.224,VALID,0.0,VALID,103.321,VALID,0.0,VALID,24.805,VALID,139.0,VALID,0.0,
2011-09-10, 02:08:04,VALID,1009.2,VALID,0.0,VALID,103.375,VALID,0.0,VALID,24.785,VALID,139.0,VALID,0.0,
2011-09-10, 02:09:04,VALID,1009.225,VALID,0.0,VALID,103.451,VALID,0.0,VALID,24.766,VALID,139.0,VALID,0.0,
2011-09-10, 02:10:04,VALID,1009.195,VALID,0.0,VALID,103.504,VALID,0.0,VALID,24.768,VALID,139.0,VALID,0.0,
2011-09-10, 02:11:04,VALID,1009.188,VALID,0.0,VALID,103.596,VALID,0.0,VALID,24.746,VALID,139.0,VALID,0.0,
2011-09-10, 02:12:04,VALID,1009.184,VALID,0.0,VALID,103.687,VALID,0.0,VALID,24.748,VALID,139.0,VALID,0.0,
2011-09-10, 02:13:04,VALID,1009.176,VALID,0.0,VALID,103.672,VALID,0.0,VALID,24.748,VALID,139.0,VALID,0.0,
2011-09-10, 02:14:04,VALID,1009.166,VALID,0.0,VALID,103.68,VALID,0.0,VALID,24.707,VALID,139.0,VALID,0.0,
2011-09-10, 02:15:04,VALID,1009.196,VALID,0.0,VALID,103.748,VALID,0.0,VALID,24.709,VALID,139.0,VALID,0.0,
2011-09-10, 02:16:04,VALID,1009.136,VALID,0.0,VALID,103.794,VALID,0.0,VALID,24.709,VALID,139.0,VALID,0.0,
2011-09-10, 02:17:04,VALID,1009.14,VALID,0.0,VALID,103.832,VALID,0.0,VALID,24.668,VALID,140.0,VALID,0.0,
2011-09-10, 02:18:04,VALID,1009.146,VALID,0.0,VALID,103.878,VALID,0.0,VALID,24.668,VALID,139.0,VALID,0.0,
2011-09-10, 02:19:04,VALID,1009.113,VALID,0.0,VALID,103.962,VALID,0.0,VALID,24.67,VALID,139.0,VALID,0.0,
2011-09-10, 02:20:04,VALID,1009.145,VALID,0.0,VALID,104.0,VALID,0.106,VALID,24.667,VALID,139.0,VALID,0.0,
2011-09-10, 02:21:04,VALID,1009.141,VALID,0.0,VALID,104.0,VALID,0.106,VALID,24.668,VALID,139.0,VALID,0.0,
2011-09-10, 02:22:04,VALID,1009.154,VALID,0.0,VALID,104.0,VALID,0.0,VALID,24.629,VALID,139.0,VALID,0.0,
2011-09-10, 02:23:04,VALID,1009.165,VALID,0.0,VALID,104.0,VALID,0.106,VALID,24.608,VALID,139.0,VALID,0.0,
2011-09-10, 02:24:04,VALID,1009.179,VALID,0.0,VALID,104.0,VALID,0.106,VALID,24.61,VALID,139.0,VALID,0.0,
2011-09-10, 02:25:04,VALID,1009.169,VALID,0.0,VALID,104.0,VALID,0.106,VALID,24.59,VALID,139.0,VALID,0.001,
2011-09-10, 02:26:04,VALID,1009.156,VALID,0.0,VALID,104.0,VALID,0.0,VALID,24.59,VALID,139.0,VALID,0.152,
2011-09-10, 02:27:04,VALID,1009.177,VALID,0.0,VALID,104.0,VALID,0.0,VALID,24.59,VALID,139.0,VALID,0.2,
2011-09-10, 02:28:04,VALID,1009.188,VALID,0.0,VALID,104.0,VALID,0.106,VALID,24.569,VALID,139.0,VALID,0.248,
2011-09-10, 02:29:04,VALID,1009.168,VALID,0.0,VALID,104.0,VALID,0.0,VALID,24.55,VALID,139.0,VALID,0.291,
2011-09-10, 02:30:04,VALID,1009.183,VALID,0.0,VALID,104.0,VALID,0.0,VALID,24.59,VALID,139.0,VALID,0.345,
2011-09-10, 02:31:04,VALID,1009.177,VALID,0.0,VALID,104.0,VALID,0.0,VALID,24.55,VALID,139.0,VALID,0.338,
2011-09-10, 02:32:04,VALID,1009.174,VALID,0.0,VALID,104.0,VALID,0.0,VALID,24.551,VALID,139.0,VALID,0.237,
2011-09-10, 02:33:04,VALID,1009.173,VALID,0.0,VALID,104.0,VALID,0.106,VALID,24.532,VALID,139.0,VALID,0.177,
2011-09-10, 02:34:04,VALID,1009.18,VALID,0.0,VALID,104.0,VALID,0.0,VALID,24.512,VALID,139.0,VALID,0.115,
2011-09-10, 02:35:04,VALID,1009.182,VALID,0.0,VALID,104.0,VALID,0.0,VALID,24.512,VALID,139.0,VALID,0.0,
2011-09-10, 02:36:04,VALID,1009.168,VALID,0.0,VALID,104.0,VALID,0.0,VALID,24.493,VALID,139.0,VALID,0.162,
2011-09-10, 02:37:04,VALID,1009.187,VALID,0.0,VALID,104.0,VALID,0.0,VALID,24.474,VALID,139.0,VALID,0.292,
2011-09-10, 02:38:04,VALID,1009.162,VALID,0.0,VALID,104.0,VALID,0.0,VALID,24.435,VALID,139.0,VALID,0.391,
2011-09-10, 02:39:04,VALID,1009.148,VALID,0.0,VALID,104.0,VALID,0.0,VALID,24.415,VALID,139.0,VALID,0.447,
2011-09-10, 02:40:04,VALID,1009.162,VALID,0.0,VALID,104.0,VALID,0.0,VALID,24.396,VALID,139.0,VALID,0.257,
2011-09-10, 02:41:04,VALID,1009.123,VALID,0.0,VALID,104.0,VALID,0.0,VALID,24.376,VALID,139.0,VALID,0.174,
2011-09-10, 02:42:04,VALID,1009.149,VALID,0.0,VALID,104.0,VALID,0.0,VALID,24.396,VALID,139.0,VALID,0.128,
2011-09-10, 02:43:04,VALID,1009.117,VALID,0.0,VALID,104.0,VALID,0.106,VALID,24.376,VALID,139.0,VALID,0.152,
2011-09-10, 02:44:04,VALID,1009.11,VALID,0.0,VALID,104.0,VALID,0.0,VALID,24.376,VALID,139.0,VALID,0.039,
2011-09-10, 02:45:04,VALID,1009.123,VALID,0.0,VALID,104.0,VALID,0.0,VALID,24.376,VALID,139.0,VALID,0.313,
2011-09-10, 02:46:04,VALID,1009.105,VALID,0.0,VALID,104.0,VALID,0.0,VALID,24.357,VALID,139.0,VALID,0.296,
2011-09-10, 02:47:04,VALID,1009.087,VALID,0.0,VALID,104.0,VALID,0.0,VALID,24.357,VALID,139.0,VALID,0.136,
2011-09-10, 02:48:04,VALID,1009.075,VALID,0.0,VALID,104.0,VALID,0.0,VALID,24.358,VALID,139.0,VALID,0.132,
2011-09-10, 02:49:04,VALID,1009.072,VALID,0.0,VALID,104.0,VALID,0.0,VALID,24.337,VALID,139.0,VALID,0.212,
2011-09-10, 02:50:04,VALID,1009.061,VALID,0.0,VALID,104.0,VALID,0.0,VALID,24.337,VALID,139.0,VALID,0.255,
2011-09-10, 02:51:04,VALID,1009.038,VALID,0.0,VALID,104.0,VALID,0.0,VALID,24.337,VALID,139.0,VALID,0.189,
2011-09-10, 02:52:04,VALID,1009.054,VALID,0.0,VALID,104.0,VALID,0.0,VALID,24.337,VALID,139.0,VALID,0.32,
2011-09-10, 02:53:04,VALID,1009.042,VALID,0.0,VALID,104.0,VALID,0.0,VALID,24.318,VALID,139.0,VALID,0.192,
2011-09-10, 02:54:04,VALID,1009.054,VALID,0.0,VALID,104.0,VALID,0.0,VALID,24.318,VALID,139.0,VALID,0.171,
2011-09-10, 02:55:04,VALID,1009.042,VALID,0.0,VALID,104.0,VALID,0.0,VALID,24.298,VALID,139.0,VALID,0.111,
2011-09-10, 02:56:04,VALID,1009.025,VALID,0.0,VALID,104.0,VALID,0.0,VALID,24.298,VALID,139.0,VALID,0.024,
2011-09-10, 02:57:04,VALID,1008.998,VALID,0.0,VALID,104.0,VALID,0.0,VALID,24.277,VALID,139.0,VALID,0.234,
2011-09-10, 02:58:04,VALID,1008.998,VALID,0.0,VALID,104.0,VALID,0.0,VALID,24.318,VALID,139.0,VALID,0.045,
2011-09-10, 02:59:04,VALID,1008.973,VALID,0.0,VALID,104.0,VALID,0.0,VALID,24.298,VALID,139.0,VALID,0.0,
2011-09-10, 03:00:04,VALID,1008.977,VALID,0.0,VALID,104.0,VALID,0.0,VALID,24.298,VALID,139.0,VALID,0.0,
2011-09-10, 03:01:04,VALID,1008.93,VALID,0.0,VALID,104.0,VALID,0.0,VALID,24.277,VALID,139.0,VALID,0.0,
2011-09-10, 03:02:04,VALID,1008.929,VALID,0.0,VALID,104.0,VALID,0.0,VALID,24.257,VALID,139.0,VALID,0.0,
2011-09-10, 03:03:04,VALID,1008.933,VALID,0.0,VALID,104.0,VALID,0.0,VALID,24.279,VALID,139.0,VALID,0.0,
2011-09-10, 03:04:04,VALID,1008.921,VALID,0.0,VALID,104.0,VALID,0.0,VALID,24.279,VALID,139.0,VALID,0.0,
2011-09-10, 03:05:04,VALID,1008.94,VALID,0.0,VALID,104.0,VALID,0.0,VALID,24.24,VALID,139.0,VALID,0.0,
2011-09-10, 03:06:04,VALID,1008.926,VALID,0.0,VALID,104.0,VALID,0.0,VALID,24.261,VALID,139.0,VALID,0.0,
2011-09-10, 03:07:04,VALID,1008.934,VALID,0.0,VALID,104.0,VALID,0.0,VALID,24.241,VALID,139.0,VALID,0.0,
2011-09-10, 03:08:04,VALID,1008.937,VALID,0.0,VALID,104.0,VALID,0.0,VALID,24.241,VALID,139.0,VALID,0.22,
2011-09-10, 03:09:04,VALID,1008.949,VALID,0.0,VALID,104.0,VALID,0.0,VALID,24.241,VALID,139.0,VALID,0.231,
2011-09-10, 03:10:04,VALID,1008.916,VALID,0.0,VALID,104.0,VALID,0.0,VALID,24.201,VALID,139.0,VALID,0.199,
2011-09-10, 03:11:04,VALID,1008.918,VALID,0.0,VALID,104.0,VALID,0.0,VALID,24.241,VALID,139.0,VALID,0.124,
2011-09-10, 03:12:04,VALID,1008.918,VALID,0.0,VALID,104.0,VALID,0.0,VALID,24.22,VALID,139.0,VALID,0.14,
2011-09-10, 03:13:04,VALID,1008.9,VALID,0.0,VALID,104.0,VALID,0.0,VALID,24.22,VALID,139.0,VALID,0.0,
2011-09-10, 03:14:04,VALID,1008.908,VALID,0.0,VALID,104.0,VALID,0.0,VALID,24.222,VALID,139.0,VALID,0.0,
2011-09-10, 03:15:04,VALID,1008.895,VALID,0.0,VALID,104.0,VALID,0.0,VALID,24.222,VALID,139.0,VALID,0.0,
2011-09-10, 03:16:04,VALID,1008.882,VALID,0.0,VALID,104.0,VALID,0.0,VALID,24.222,VALID,139.0,VALID,0.198,
2011-09-10, 03:17:04,VALID,1008.877,VALID,0.0,VALID,104.0,VALID,0.0,VALID,24.222,VALID,139.0,VALID,0.111,
2011-09-10, 03:18:04,VALID,1008.873,VALID,0.0,VALID,104.0,VALID,0.0,VALID,24.181,VALID,139.0,VALID,0.116,
2011-09-10, 03:19:04,VALID,1008.885,VALID,0.0,VALID,104.0,VALID,0.0,VALID,24.181,VALID,139.0,VALID,0.323,
2011-09-10, 03:20:04,VALID,1008.849,VALID,0.0,VALID,104.0,VALID,0.106,VALID,24.16,VALID,139.0,VALID,0.227,
2011-09-10, 03:21:04,VALID,1008.839,VALID,0.0,VALID,104.0,VALID,0.106,VALID,24.181,VALID,139.0,VALID,0.318,
2011-09-10, 03:22:04,VALID,1008.828,VALID,0.0,VALID,104.0,VALID,0.0,VALID,24.181,VALID,139.0,VALID,0.432,
2011-09-10, 03:23:04,VALID,1008.816,VALID,0.0,VALID,104.0,VALID,0.0,VALID,24.181,VALID,76.0,VALID,0.521,
2011-09-10, 03:24:04,VALID,1008.822,VALID,0.0,VALID,104.0,VALID,0.0,VALID,24.162,VALID,76.0,VALID,0.421,
2011-09-10, 03:25:04,VALID,1008.83,VALID,0.0,VALID,104.0,VALID,0.0,VALID,24.162,VALID,71.0,VALID,0.509,
2011-09-10, 03:26:04,VALID,1008.803,VALID,0.0,VALID,104.0,VALID,0.106,VALID,24.16,VALID,70.0,VALID,0.182,
2011-09-10, 03:27:04,VALID,1008.775,VALID,0.0,VALID,104.0,VALID,0.106,VALID,24.14,VALID,70.0,VALID,0.225,
2011-09-10, 03:28:04,VALID,1008.778,VALID,0.0,VALID,104.0,VALID,0.106,VALID,24.181,VALID,69.0,VALID,0.708,
2011-09-10, 03:29:04,VALID,1008.773,VALID,0.0,VALID,104.0,VALID,0.106,VALID,24.16,VALID,69.0,VALID,0.516,
2011-09-10, 03:30:04,VALID,1008.753,VALID,0.0,VALID,104.0,VALID,0.106,VALID,24.162,VALID,69.0,VALID,0.482,
2011-09-10, 03:31:04,VALID,1008.755,VALID,0.0,VALID,104.0,VALID,0.106,VALID,24.14,VALID,60.0,VALID,0.649,
2011-09-10, 03:32:04,VALID,1008.796,VALID,0.0,VALID,104.0,VALID,0.106,VALID,24.162,VALID,58.0,VALID,0.368,
2011-09-10, 03:33:04,VALID,1008.774,VALID,0.0,VALID,104.0,VALID,0.106,VALID,24.14,VALID,58.0,VALID,0.41,
2011-09-10, 03:34:04,VALID,1008.797,VALID,0.0,VALID,104.0,VALID,0.0,VALID,24.121,VALID,58.0,VALID,0.523,
2011-09-10, 03:35:04,VALID,1008.758,VALID,0.0,VALID,104.0,VALID,0.0,VALID,24.123,VALID,58.0,VALID,0.42,
2011-09-10, 03:36:04,VALID,1008.771,VALID,0.0,VALID,104.0,VALID,0.0,VALID,24.125,VALID,58.0,VALID,0.42,
2011-09-10, 03:37:04,VALID,1008.731,VALID,0.0,VALID,104.0,VALID,0.0,VALID,24.125,VALID,58.0,VALID,0.499,
2011-09-10, 03:38:04,VALID,1008.752,VALID,0.0,VALID,104.0,VALID,0.0,VALID,24.084,VALID,52.0,VALID,0.434,
2011-09-10, 03:39:04,VALID,1008.759,VALID,0.0,VALID,104.0,VALID,0.0,VALID,24.064,VALID,48.0,VALID,0.349,
2011-09-10, 03:40:04,VALID,1008.766,VALID,0.0,VALID,104.0,VALID,0.0,VALID,24.066,VALID,48.0,VALID,0.246,